[[{"header":{"parameterUnit":"m.s-1","parameterCategory":1,"la1":30.2991,"la2":30.254,"lo1":-89.0895,"lo2":-89.0444,"dy":0.0017,"dx":0.0017,"nx":28,"ny":28,"refTime":"2024-10-02T03:00:00:Z","depth":0,"parameterNumber":2,"parameterNumberName":"U-component_of_WINDS"},"data":[0,0,0,0,0,0,0,0,0,0,0,0,0,0,0,0,0,0,0,0,0,0,0,0,0,0,0,0,0,0,0,0,0,0,0,0,0,0,0,0,0,0,0,0,0,0,0,0,0,0,0,0,0,0,0,0,0,0,-2.0845,-2.0844,0,-2.0786,-2.0785,-2.0784,-2.0725,-2.0724,-2.0723,-2.0722,-2.0662,-2.0661,-2.0661,0,0,0,0,0,0,0,0,0,0,0,0,0,-2.0908,-2.0907,-2.0845,-2.0844,-2.0844,-2.0786,-2.0785,-2.0784,-2.0725,-2.0724,-2.0723,-2.0722,-2.0663,-2.0662,-2.066,0,0,0,0,0,0,0,0,0,0,0,0,0,-2.0868,-2.0907,-2.0845,-2.0807,-2.0803,-2.0786,-2.0785,-2.0784,-2.0725,-2.0724,-2.0723,-2.0722,-2.0663,-2.0662,-2.066,-2.0676,0,0,-2.0656,-2.0656,0,0,0,0,0,0,0,0,-2.087,-2.0866,-2.0813,-2.081,-2.0805,-2.0761,-2.0785,-2.0748,-2.0725,-2.0755,-2.0722,-2.0721,-2.0696,-2.0692,-2.0684,-2.0674,-2.0671,-2.0656,-2.0656,-2.0655,-2.0655,0,0,0,0,0,0,0,-2.0873,-2.0868,-2.0822,-2.0813,-2.0808,-2.0793,-2.0786,-2.0778,-2.0733,-2.0752,-2.0748,-2.0741,-2.0694,-2.0685,-2.0682,-2.067,-2.0656,-2.0655,-2.0654,-2.0654,-2.0672,-2.0673,0,0,0,0,0,0,-2.0881,-2.087,-2.0823,-2.082,-2.0835,-2.0793,-2.0785,-2.0777,-2.0733,-2.0725,-2.0743,-2.0739,-2.0688,-2.0683,-2.0679,-2.0697,-2.0655,-2.0654,-2.0653,-2.0671,-2.0672,-2.0674,0,0,0,0,0,0,-2.0883,-2.0878,-2.0826,-2.0844,-2.0836,-2.0793,-2.0784,-2.0776,-2.0767,-2.0726,-2.0717,-2.0742,-2.0687,-2.0681,-2.0678,-2.0694,-2.0653,-2.0652,-2.0669,-2.0671,-2.0673,-2.0731,0,0,0,0,0,0,-2.0885,-2.0879,-2.0884,-2.0845,-2.0835,-2.0825,-2.0785,-2.0776,-2.0765,-2.076,-2.0723,-2.0715,-2.0685,-2.068,-2.0677,-2.0691,-2.0651,-2.0668,-2.067,-2.0672,-2.0727,-2.0734,-2.074,0,0,0,0,0,-2.0888,-2.0902,-2.0885,-2.0879,-2.0841,-2.0826,-2.0821,-2.0786,-2.0767,-2.0772,-2.0746,-2.0717,-2.0693,-2.068,-2.0676,-2.069,-2.0667,-2.067,-2.0672,-2.0724,-2.0733,-2.074,0,0,0,0,0,0,-2.0945,-2.0896,-2.0876,-2.0879,-2.0857,-2.0816,-2.0822,-2.0796,-2.0779,-2.0775,-2.0732,-2.0725,-2.0727,-2.0708,-2.0695,-2.0704,-2.0676,-2.0678,-2.0717,-2.0725,-2.0731,-2.0736,-2.065,0,0,0,0,0,-2.0958,-2.0949,-2.0908,-2.0914,-2.0904,-2.0865,-2.0857,-2.0832,-2.0808,-2.0798,-2.0771,-2.0749,-2.0737,-2.0729,-2.0715,-2.0724,-2.0716,-2.0732,-2.0739,-2.0744,-2.0747,-2.0751,-2.0759,-2.0683,-2.0683,-2.0683,0,0,-2.0984,-2.0957,-2.0954,-2.0925,-2.0905,-2.0898,-2.0858,-2.0851,-2.0846,-2.0797,-2.0793,-2.0773,-2.0745,-2.0749,-2.0748,-2.0733,-2.0766,-2.0748,-2.0753,-2.0752,-2.0755,-2.0762,-2.0769,-2.0685,-2.0685,-2.0684,0,0,-2.1029,-2.1007,-2.1011,-2.0992,-2.0963,-2.0937,-2.0938,-2.0901,-2.0886,-2.0881,-2.0845,-2.0838,-2.0817,-2.0799,-2.0787,-2.0827,-2.0801,-2.0824,-2.0859,-2.0864,-2.087,-2.0875,-2.0891,-2.0897,-2.0827,-2.0827,-2.0827,0,-2.1066,-2.1053,-2.1016,-2.1012,-2.1001,-2.0957,-2.0961,-2.0944,-2.0912,-2.0906,-2.0889,-2.0862,-2.0841,-2.084,-2.085,-2.0841,-2.0842,-2.0828,-2.0872,-2.0877,-2.0881,-2.0896,-2.0901,-2.083,-2.0829,-2.0829,-2.0829,0,-2.1101,-2.1093,-2.1099,-2.107,-2.1059,-2.1059,-2.1022,-2.1016,-2.0992,-2.0968,-2.0965,-2.0937,-2.0918,-2.0915,-2.0892,-2.0912,-2.0903,-2.088,-2.085,-2.0892,-2.0905,-2.091,-2.0834,-2.0833,-2.0832,-2.0831,0,0,-2.118,-2.113,-2.1133,-2.112,-2.1085,-2.1079,-2.1077,-2.1058,-2.1055,-2.1034,-2.1033,-2.1017,-2.0995,-2.0982,-2.0956,-2.0961,-2.0996,-2.0936,-2.0935,-2.095,-2.1018,-2.1037,-2.1044,-2.0978,-2.0979,-2.0979,-2.1021,0,-2.122,-2.1214,-2.1181,-2.1186,-2.1179,-2.1138,-2.1137,-2.1116,-2.1094,-2.1085,-2.106,-2.105,-2.1022,-2.1014,-2.1016,-2.0991,-2.1009,-2.0987,-2.0977,-2.0977,-2.0987,-2.1051,-2.107,-2.1111,-2.1026,-2.1027,-2.1027,0,-2.1265,-2.1248,-2.1253,-2.1219,-2.1215,-2.1215,-2.1196,-2.1187,-2.1163,-2.1147,-2.1133,-2.1104,-2.1102,-2.1074,-2.107,-2.1056,-2.105,-2.1037,-2.1038,-2.1036,-2.1006,-2.1052,-2.1122,-2.1129,-2.1034,-2.1034,-2.1033,0,-2.1324,-2.1302,-2.1303,-2.1292,-2.1253,-2.1254,-2.1238,-2.1212,-2.1204,-2.1187,-2.1181,-2.1164,-2.1155,-2.1144,-2.1112,-2.1094,-2.1112,-2.1081,-2.11,-2.1101,-2.1106,-2.1106,-2.1178,-2.11,-2.11,-2.11,-2.11,0,-2.1373,-2.1377,-2.1329,-2.1329,-2.1334,-2.1295,-2.1301,-2.128,-2.1259,-2.1255,-2.1218,-2.1215,-2.1172,-2.1165,-2.114,-2.1142,-2.1138,-2.1125,-2.1119,-2.1129,-2.1131,-2.1125,-2.1122,-2.1102,-2.1101,-2.1101,-2.1101,0,-2.144,-2.1407,-2.1405,-2.1368,-2.1359,-2.1364,-2.1333,-2.1332,-2.1308,-2.1304,-2.1301,-2.1263,-2.1253,-2.122,-2.1201,-2.1184,-2.1194,-2.1181,-2.1203,-2.1199,-2.122,-2.1219,-2.1292,-2.13,-2.1216,-2.1217,-2.1218,0,-2.1473,-2.1476,-2.144,-2.1435,-2.142,-2.1412,-2.1404,-2.1366,-2.1359,-2.1332,-2.1335,-2.1322,-2.131,-2.1295,-2.1267,-2.1253,-2.124,-2.1266,-2.1238,-2.1249,-2.1242,-2.1243,-2.1244,-2.1273,-2.1274,-2.1275,-2.1275,0,-2.1537,-2.1521,-2.151,-2.1494,-2.1484,-2.147,-2.1453,-2.1451,-2.1409,-2.1403,-2.1392,-2.1383,-2.1364,-2.1352,-2.1334,-2.1317,-2.129,-2.1285,-2.1289,-2.13,-2.1313,-2.1308,-2.1221,-2.1283,-2.1283,-2.1282,-2.1282,-2.1281,-2.1589,-2.159,-2.1566,-2.1555,-2.1538,-2.1524,-2.1522,-2.1498,-2.1488,-2.147,-2.1449,-2.1441,-2.1418,-2.1391,-2.1377,-2.1371,-2.1356,-2.1361,-2.1363,-2.1365,-2.1371,-2.1313,-2.1367,-2.1367,-2.1367,-2.1367,-2.1366,0,-2.1652,-2.1635,-2.1625,-2.1603,-2.1595,-2.157,-2.155,-2.1545,-2.1539,-2.152,-2.1509,-2.1497,-2.1486,-2.1457,-2.1443,-2.1444,-2.1431,-2.1442,-2.1442,-2.1439,-2.1384,-2.1383,-2.1452,-2.1452,-2.1452,-2.1452,-2.1452,-2.1452,-2.1684,-2.1686,-2.1667,-2.166,-2.1642,-2.1635,-2.1626,-2.1613,-2.1598,-2.1587,-2.1577,-2.1558,-2.1536,-2.152,-2.1509,-2.1501,-2.1498,-2.1513,-2.1501,-2.1451,-2.1442,-2.1435,-2.1433,-2.1512,-2.1512,-2.1556,-2.1557,-2.1557]},{"header":{"parameterUnit":"m.s-1","parameterCategory":1,"la1":30.2991,"la2":30.254,"lo1":-89.0895,"lo2":-89.0444,"dy":0.0017,"dx":0.0017,"nx":28,"ny":28,"refTime":"2024-10-02T03:00:00:Z","depth":0,"parameterNumber":3,"parameterNumberName":"V-component_of_WINDS"},"data":[0,0,0,0,0,0,0,0,0,0,0,0,0,0,0,0,0,0,0,0,0,0,0,0,0,0,0,0,0,0,0,0,0,0,0,0,0,0,0,0,0,0,0,0,0,0,0,0,0,0,0,0,0,0,0,0,0,0,-0.8654,-0.8654,0,-0.8632,-0.8632,-0.8632,-0.8633,-0.8633,-0.8633,-0.8633,-0.8612,-0.8611,-0.861,0,0,0,0,0,0,0,0,0,0,0,0,0,-0.8698,-0.8697,-0.8654,-0.8654,-0.8653,-0.8632,-0.8632,-0.8632,-0.8632,-0.8633,-0.8633,-0.8634,-0.8612,-0.8611,-0.861,0,0,0,0,0,0,0,0,0,0,0,0,0,-0.8678,-0.8697,-0.8654,-0.8651,-0.8651,-0.8632,-0.8632,-0.8632,-0.8632,-0.8633,-0.8633,-0.8634,-0.8612,-0.8611,-0.861,-0.8593,0,0,-0.8606,-0.8605,0,0,0,0,0,0,0,0,-0.8679,-0.8676,-0.8652,-0.8651,-0.8651,-0.8636,-0.8639,-0.8618,-0.8632,-0.8639,-0.8633,-0.8634,-0.8619,-0.8617,-0.8612,-0.8591,-0.8591,-0.8606,-0.8605,-0.8604,-0.8604,0,0,0,0,0,0,0,-0.868,-0.8677,-0.8645,-0.8652,-0.8651,-0.8652,-0.8649,-0.8635,-0.8627,-0.8639,-0.8639,-0.8636,-0.8619,-0.8614,-0.8612,-0.859,-0.8606,-0.8604,-0.8604,-0.8603,-0.8557,-0.8556,0,0,0,0,0,0,-0.8682,-0.8678,-0.8646,-0.8645,-0.8666,-0.865,-0.8648,-0.864,-0.8627,-0.8626,-0.8636,-0.8636,-0.8616,-0.8613,-0.8611,-0.8592,-0.8604,-0.8603,-0.8602,-0.8557,-0.8557,-0.8556,0,0,0,0,0,0,-0.8683,-0.8679,-0.8647,-0.8661,-0.8657,-0.8649,-0.864,-0.8639,-0.8634,-0.8625,-0.8624,-0.8632,-0.8616,-0.8613,-0.8598,-0.8591,-0.8602,-0.8601,-0.8558,-0.8557,-0.8557,-0.8552,0,0,0,0,0,0,-0.8684,-0.8679,-0.8672,-0.8661,-0.8657,-0.8633,-0.864,-0.8639,-0.8632,-0.8632,-0.8621,-0.8619,-0.8616,-0.86,-0.8596,-0.8589,-0.86,-0.8558,-0.8558,-0.8557,-0.8553,-0.8552,-0.855,0,0,0,0,0,-0.8686,-0.8671,-0.8672,-0.8668,-0.8647,-0.8633,-0.863,-0.8627,-0.8631,-0.8624,-0.8619,-0.862,-0.8592,-0.8598,-0.8594,-0.8587,-0.8559,-0.8558,-0.8557,-0.8554,-0.8552,-0.855,0,0,0,0,0,0,-0.8681,-0.867,-0.867,-0.8652,-0.8644,-0.8633,-0.8624,-0.8625,-0.8615,-0.8615,-0.8611,-0.8609,-0.8594,-0.8589,-0.8596,-0.8571,-0.8576,-0.8574,-0.8575,-0.8573,-0.8572,-0.8574,-0.8599,0,0,0,0,0,-0.8679,-0.8667,-0.8658,-0.8643,-0.8639,-0.8632,-0.8626,-0.8624,-0.8615,-0.8611,-0.8605,-0.8596,-0.8586,-0.8579,-0.8569,-0.8552,-0.8551,-0.8545,-0.8544,-0.8543,-0.8542,-0.8534,-0.8533,-0.8553,-0.8553,-0.8553,0,0,-0.8672,-0.8664,-0.8658,-0.8642,-0.8635,-0.8625,-0.8629,-0.8617,-0.861,-0.8609,-0.8595,-0.859,-0.8581,-0.8565,-0.8558,-0.856,-0.8536,-0.8542,-0.8541,-0.854,-0.8533,-0.8531,-0.853,-0.8552,-0.8552,-0.8553,0,0,-0.8655,-0.8648,-0.8635,-0.8629,-0.8619,-0.8615,-0.8612,-0.8602,-0.8599,-0.8584,-0.8585,-0.8576,-0.8558,-0.8551,-0.8546,-0.8529,-0.853,-0.8526,-0.8519,-0.8512,-0.851,-0.8509,-0.8504,-0.8502,-0.8524,-0.8524,-0.8524,0,-0.8649,-0.8632,-0.8629,-0.8618,-0.8611,-0.8611,-0.8599,-0.8593,-0.858,-0.8576,-0.8579,-0.8558,-0.8551,-0.8535,-0.8531,-0.8526,-0.8524,-0.8527,-0.8511,-0.8509,-0.8508,-0.8503,-0.8501,-0.8524,-0.8524,-0.8524,-0.8524,0,-0.8626,-0.8615,-0.8606,-0.8594,-0.8587,-0.8575,-0.8571,-0.8564,-0.8563,-0.8559,-0.8546,-0.8538,-0.8527,-0.8523,-0.8522,-0.8507,-0.8509,-0.8511,-0.8517,-0.8506,-0.8501,-0.85,-0.8523,-0.8524,-0.8524,-0.8524,0,0,-0.8605,-0.8593,-0.859,-0.8586,-0.8575,-0.8567,-0.8556,-0.8546,-0.8541,-0.8532,-0.8523,-0.8509,-0.8511,-0.8505,-0.8503,-0.8497,-0.8486,-0.85,-0.85,-0.8499,-0.8472,-0.8471,-0.8469,-0.8486,-0.8486,-0.8486,-0.8473,0,-0.8589,-0.8569,-0.8567,-0.8549,-0.854,-0.8541,-0.8531,-0.8525,-0.8521,-0.8513,-0.8509,-0.85,-0.8503,-0.8499,-0.8493,-0.8489,-0.8481,-0.8489,-0.8479,-0.8479,-0.8482,-0.8466,-0.8465,-0.8453,-0.8471,-0.8471,-0.847,0,-0.8566,-0.8558,-0.8541,-0.8533,-0.8529,-0.8521,-0.8512,-0.8504,-0.8497,-0.8495,-0.8489,-0.8488,-0.8478,-0.8483,-0.847,-0.8476,-0.8472,-0.8469,-0.8469,-0.8468,-0.8474,-0.8466,-0.8449,-0.8448,-0.8468,-0.8468,-0.8468,0,-0.8555,-0.854,-0.8528,-0.8524,-0.8514,-0.8509,-0.8505,-0.8498,-0.8493,-0.8485,-0.8482,-0.8473,-0.8468,-0.8462,-0.846,-0.8463,-0.8447,-0.8452,-0.8446,-0.8446,-0.8442,-0.8443,-0.8425,-0.8438,-0.8438,-0.8438,-0.8438,0,-0.8538,-0.8527,-0.8523,-0.8515,-0.8504,-0.8502,-0.8491,-0.8487,-0.8481,-0.8474,-0.8473,-0.8466,-0.8463,-0.8456,-0.8454,-0.8444,-0.8441,-0.844,-0.844,-0.8441,-0.8441,-0.8438,-0.8439,-0.8438,-0.8438,-0.8438,-0.8438,0,-0.8524,-0.852,-0.8507,-0.85,-0.8498,-0.849,-0.8484,-0.8478,-0.8475,-0.8465,-0.8463,-0.8458,-0.845,-0.8447,-0.8436,-0.8435,-0.8424,-0.8424,-0.8426,-0.8426,-0.8421,-0.8422,-0.8402,-0.84,-0.8413,-0.8413,-0.8413,0,-0.8513,-0.8505,-0.8498,-0.8493,-0.8489,-0.8481,-0.8475,-0.8473,-0.8468,-0.846,-0.8454,-0.8446,-0.8439,-0.8426,-0.8422,-0.8415,-0.8415,-0.8409,-0.8414,-0.8415,-0.8416,-0.8417,-0.8417,-0.8408,-0.8408,-0.8407,-0.8407,0,-0.8495,-0.8495,-0.8487,-0.8479,-0.8473,-0.8467,-0.8461,-0.8457,-0.8454,-0.8448,-0.844,-0.8435,-0.8425,-0.8417,-0.8409,-0.8406,-0.8406,-0.8406,-0.8404,-0.8405,-0.8408,-0.8407,-0.8425,-0.8406,-0.8406,-0.8406,-0.8406,-0.8407,-0.8484,-0.8478,-0.8472,-0.8464,-0.8459,-0.8454,-0.8448,-0.8444,-0.8437,-0.8429,-0.8428,-0.842,-0.8414,-0.8404,-0.84,-0.8394,-0.8396,-0.8393,-0.8393,-0.8392,-0.8392,-0.8408,-0.8392,-0.8392,-0.8392,-0.8392,-0.8392,0,-0.8467,-0.8464,-0.8457,-0.8449,-0.8443,-0.8444,-0.8438,-0.8433,-0.8425,-0.842,-0.8414,-0.8405,-0.8398,-0.8393,-0.8386,-0.8382,-0.8383,-0.8381,-0.8381,-0.8381,-0.8391,-0.8393,-0.8381,-0.8381,-0.8381,-0.8381,-0.8381,-0.8381,-0.8458,-0.8448,-0.8447,-0.8435,-0.8431,-0.8423,-0.842,-0.8415,-0.8411,-0.8401,-0.8395,-0.8393,-0.8388,-0.8381,-0.8375,-0.8374,-0.8372,-0.837,-0.8369,-0.8379,-0.838,-0.8381,-0.8384,-0.8369,-0.8369,-0.836,-0.836,-0.836]}]]